CZ-6A DEB, 55515

Orbit data source: Space-Track

CZ-6A DEB, 55515 is space debris in SSO originally from a launch on Fri, 11 Nov 2022 UTC launched from the Taiyaun Space Center, China (TSC). Debris objects in space refer to the collection of defunct objects orbiting the Earth. Examples of debris include non-operational satellites, rocket bodies, and fragments generated from explosions, collisions, or faulty payload assembly.

Loading next visibility...
Identifier
55515, 2022-151XM
Orbit
SSO
Country
Flag of CNCN / PRC
Related business
Manufacturer
SAST
Mission
Spacecraft
Bus & Motor
Unknown
Mass
Unknown
Launch date (UTC)
2022-11-11 (3 years ago)
Launch vehicle
Unknown
Launch site
Taiyaun Space Center, China (TSC)
Object type
Payload
Rocket body
Debris
Shape & HBR
Unknown shape, 0.1 m
Radar Cross Section
Small (<0.1 m²)

Expand to show TLE details & history
Last TLE update: 2 days ago

TLE from 2 days ago
0 CZ-6A DEB
1 55515U 22151XM  25348.04491420  .00006743  00000-0  13935-2 0  9991
2 55515  98.5334  17.9945 0137453 158.5894 202.1129 14.54862049157567
Epoch: 2025-12-14T01:04Z
TLE epoch observation values (Epoch: 2025-12-14T01:04:40.586Z)
Latitude
-0.00011°
Longitude
-81.13807°
Altitude
803.246 km
Speed
7.404 km/s
True Right ascension
01h 11m 58s
True Declination
0° 00' 00"
Sunlit
Object was in daylight at epoch
Visualization orbit readout
Latitude
Unknown
Longitude
Unknown
Altitude
Unknown
Speed
Unknown
Apparent Right ascension
Unknown
Apparent Declination
Unknown
Sunlit
N/A
Visualization observer readout
Local Sidereal Time
17:05:14
Azimuth
Unknown
Elevation
Unknown
Doppler factor
Unknown
Orbital elements
Apogee altitude
804.302 km
Perigee altitude
609.529 km
Semi-major axis
7,085.053 km
Eccentricity
0.01375
Inclination
98.5334°
RAAN
17.9945°
Arg. of periapsis
158.5894°
True anomaly
201.52929°
Mean anomaly
202.1129°
Eccentric anomaly
201.82017°
Mean motion
3.63939 °/min
Orbital period
98.92 mins
BSTAR
0.0013935
Loading maneuver chart data...
Computing Atmospheric mass density...
Loading historical data...
Loading historical data...
Loading historical data...
Loading historical data...
Loading historical data...
Loading historical data...
Loading historical data...

Documentation

Showing up to 5 results
|